#timestamp,LO_Frequency,Hit,StdDev 
1655834415.5,286047012.4,N
1655834435.3,286047014.0,N
1655834455.2,286047015.4,N
1655834475.0,286047014.2,N
1655834475.9,286047014.2,N
1655834495.8,286047016.1,N
1655834515.6,286047017.9,Y
1655834535.4,286047009.1,P
1655834555.3,286047008.2,P
1655834575.1,286047008.9,P
1655834595.9,286047007.9,Y
1655834615.7,286047000.5,P
1655834635.5,286047000.6,N
1655834655.4,286047000.5,N
1655834675.2,286046999.1,N
1655834695.0,286046999.2,N
1655834695.9,286046999.2,N
1655834715.8,286046997.4,N
1655834735.6,286046995.5,N
1655834755.5,286046993.5,N
1655834775.3,286046994.4,N
1655834795.1,286046991.3,N
1655834815.9,286046987.0,N
1655834835.7,286046986.4,N
1655834855.5,286046982.5,Y
1655834875.4,286046984.3,P
1655834895.2,286046983.3,N
1655834915.1,286046980.7,P
1655834916.0,286046980.7,Y
1655834935.8,286046996.1,P
1655834955.6,286046995.5,N
1655834975.5,286046993.6,N
1655834995.3,286046991.7,N
1655835015.2,286046993.1,N
1655835035.9,286046991.5,N
1655835055.7,286046988.9,Y
1655835075.6,286046997.9,P
1655835095.4,286046995.7,N
1655835115.3,286046996.4,N
1655835135.1,286046993.8,Y
1655835136.0,286046993.8,P
1655835155.8,286046999.4,N
1655835175.7,286046999.0,N
1655835195.5,286046998.3,N
1655835215.4,286046999.3,N
1655835235.2,286046999.5,N
1655835255.0,286046999.3,N
1655835255.9,286046999.3,N
1655835275.8,286046997.0,N
1655835295.6,286047001.1,N
1655835315.4,286046998.8,N
1655835335.3,286046999.1,N
1655835355.1,286046999.2,N
1655835375.8,286046997.8,N
1655835395.7,286046997.1,N
1655835415.5,286046999.3,N
1655835435.4,286046997.4,N
1655835455.2,286046998.0,N
1655835475.0,286046995.3,N
1655835475.9,286046995.3,N
1655835495.8,286046995.4,N
1655835515.6,286046995.2,N
1655835535.4,286046994.9,N
1655835555.3,286046995.0,N
1655835575.1,286046999.6,N
1655835595.9,286047000.8,N
1655835615.7,286046999.7,N
1655835635.5,286047002.4,N
1655835655.4,286047000.7,N
1655835675.2,286047000.9,N
1655835695.0,286046999.8,N
1655835695.9,286046999.8,N
1655835715.8,286047002.5,N
1655835735.6,286047000.3,N
1655835755.5,286047000.3,N
1655835775.3,286047000.1,N
1655835795.1,286047000.5,N
1655835815.9,286046998.8,N
1655835835.7,286047001.2,N
1655835855.5,286047000.6,N
1655835875.4,286047002.5,N
1655835895.2,286047003.0,N
1655835915.1,286047003.0,N
1655835916.0,286047003.0,N
1655835935.8,286047003.8,N
1655835955.6,286047004.0,N
1655835975.5,286047003.2,N
1655835995.3,286047006.0,N
1655836015.1,286047005.2,N
1655836035.9,286047010.7,Y
1655836055.7,286047011.2,P
1655836075.6,286047011.6,N
1655836095.4,286047011.1,N
1655836115.2,286047012.0,N
1655836135.1,286047011.4,N
1655836136.0,286047011.4,N
1655836155.8,286047010.9,N
1655836175.7,286047014.2,Y
1655836195.5,286047004.5,P
1655836215.3,286047004.9,N
1655836235.2,286047007.1,N
1655836255.0,286047006.1,N
1655836255.9,286047006.1,Y
1655836275.7,286046999.9,P
1655836295.6,286046998.2,N
1655836315.4,286046998.4,N
1655836335.3,286046998.6,N
1655836355.1,286046999.9,N
1655836375.9,286046999.9,N
1655836395.7,286046998.6,N
1655836415.5,286046998.9,N
1655836435.4,286046996.9,N
1655836455.2,286046996.6,N
1655836475.0,286046996.8,N
1655836476.0,286046996.8,N
1655836495.8,286046997.0,N
1655836515.6,286046996.7,N
1655836535.5,286046996.7,N
1655836555.3,286046997.3,N
1655836575.1,286046997.1,N
1655836595.9,286046996.7,N
1655836615.7,286046996.8,N
1655836635.6,286046998.8,N
1655836655.4,286046998.9,N
1655836675.2,286046998.4,N
1655836695.1,286046998.4,N
1655836696.0,286046998.4,N
1655836715.8,286046998.7,N
1655836735.6,286046998.6,N
1655836755.5,286046998.7,N
1655836775.3,286047001.0,N
1655836795.2,286046998.6,N
1655836815.9,286047000.4,N
1655836835.7,286047002.3,N
1655836855.6,286047003.5,N
1655836875.4,286047005.4,Y
1655836895.3,286047006.4,P
1655836915.1,286047006.6,N
1655836916.0,286047006.6,N
1655836935.8,286047007.6,N
1655836955.7,286047005.3,N
1655836975.5,286047004.8,N
1655836995.3,286047011.9,Y
1655837015.2,286047001.1,P
1655837035.0,286047000.3,N
1655837035.9,286047000.3,N
1655837055.8,286047002.3,N
1655837075.6,286047002.6,N
1655837095.4,286047001.5,N
1655837115.3,286047003.8,N
1655837135.1,286047004.2,N
1655837155.8,286047006.0,Y
1655837175.7,286047001.6,P
1655837195.5,286047001.5,P
1655837215.4,286047001.9,P
1655837235.2,286047001.3,Y
1655837255.0,286047002.8,P
1655837255.9,286047002.8,P
1655837275.8,286047001.9,P
1655837295.6,286047001.8,Y
1655837315.4,286047001.0,P
1655837335.3,286047000.8,N
1655837355.1,286047000.2,N
1655837375.9,286047000.2,N
1655837395.7,286047007.6,Y
1655837415.5,286047011.2,P
1655837435.4,286047016.1,P
1655837455.2,286047023.4,P
1655837475.1,286047032.9,Y
1655837476.0,286047032.9,P
1655837495.8,286047025.0,N
1655837515.6,286047028.7,P
1655837535.5,286047032.0,Y
1655837555.3,286047011.2,P
1655837575.2,286047015.2,N
1655837595.9,286047019.3,P
1655837615.7,286047021.4,Y
1655837635.6,286047003.7,P
1655837655.4,286047007.6,N
1655837675.3,286047009.1,N
1655837695.1,286047010.4,N
1655837696.0,286047010.4,N
1655837715.8,286047012.4,N
1655837735.7,286047013.7,Y
1655837755.5,286047004.1,P
1655837775.4,286047007.2,N
1655837795.2,286047010.0,P
1655837815.0,286047018.5,Y
1655837815.9,286047018.5,P
1655837835.8,286047008.0,N
1655837855.6,286047011.8,N
1655837875.5,286047008.2,N
1655837895.3,286047009.2,N
1655837915.1,286047006.2,N
1655837935.9,286047004.5,N
1655837955.7,286047005.2,N
1655837975.5,286047005.7,N
1655837995.4,286047005.4,N
